星链-35355(STARLINK-35355)

导读 | 豆包AI

STARLINK-35355是美国SpaceX星链星座的卫星,于2025年11月11日发射入轨,星链是全球最大的低轨卫星互联网星座,该卫星延续星链设计,依托一箭多星发射技术部署,旨在为全球用户提供高速低延迟的互联网接入服务,覆盖偏远地区、海洋、空中等传统网络难以触达的场景。

基本信息
目录编号:
66448
目录名称:
STARLINK-35355
国际标识:
2025-259AC
轨道中心:
EARTH
卫星名称:
星链-35355
卫星全名:
星链-35355(STARLINK-35355)
卫星状态:
在轨 (已飞行144 天)
发射日期:
2025-11-11 UTC
国别 :
美国 (US)
星等 :
--
轨道信息
数据来源 国际轨道数据
星历时间: 2026-04-03T12:28:24+0800
1天前
查看轨道信息
半长轴: 6861.078km
偏心率: 0.0001627
轨道倾角: 43.001°
近地点辐角 262.594°
升交点赤经 136.348°
平近点角 97.473°
近地点: 481.824km
远地点: 484.058km
周期: 94.265分钟
每日圈数: 15.276162
详细信息
固有亮度:
5
最大亮度:
2.5
卫星平台:
Starlink V1.0
覆盖范围:
全球
运营商:
太空探索技术公司
运营商所在国:
美国
制造商(研发单位):
太空探索技术公司
制造商所在国:
美国
使用方式:
暂无
卫星简介
Starlink 计划是 SpaceX 推出的全球卫星互联网项目,通过发射低轨道卫星,为全球尤其是偏远地区提供高速、低延迟的互联网服务。自 2019 年起,Starlink 已部署数千颗卫星,旨在缩小全球数字鸿沟,推动互联网普及。该项目还为军事、航空等行业提供通信支持,带来广泛经济效益。
2D轨道图
3D轨道图
轨道高度分析图
轨道倾角分析图
轨道综合分析图
查看轨道综合分析图